Weather History for KHBI - July, 2014

Change the Weather History Date:

Monday, July 21, 2014

  Actual Average (KGSO) Record (KGSO)
Temperature  
Mean Temperature 72 °F 79 °F  
Max Temperature 75 °F 88 °F 102 °F (1926)
Min Temperature 70 °F 69 °F 56 °F (1929)
Degree Days  
Heating Degree Days 0 0  
Month to date heating degree days 0  
Since 1 June heating degree days 6  
Since 1 July heating degree days 0  
Cooling Degree Days 8 14  
Month to date cooling degree days 288  
Year to date cooling degree days 754  
Since 1 June cooling degree days 595  
Growing Degree Days 22 (Base 50)    
Moisture  
Dew Point 72 °F    
Average Humidity 98    
Maximum Humidity 100    
Minimum Humidity 95    
Precipitation  
Precipitation 0.33 in 0.15 in 2.28 in (1988)
Month to date precipitation 2.96  
Year to date precipitation 23.39  
Sea Level Pressure  
Sea Level Pressure 30.15 in    
Wind  
Wind Speed 1 mph (NE)    
Max Wind Speed 6 mph    
Max Gust Speed -    
Visibility 7 miles    
Events Rain    
T = Trace of Precipitation, MM = Missing Value Source: NWS Daily Summary

Daily Weather History Graph

Daily Weather History Graph

Search for Another Location

Airport or City:

Trip Planner

Search our weather history database for the weather conditions in past years. The results will help you decide how hot, cold, wet, or windy it might be!

Date:

Astronomy

Jul. 21, 2014 Rise Set
Actual Time 6:19 AM EDT 8:32 PM EDT
Civil Twilight 5:50 AM EDT 9:01 PM EDT
Nautical Twilight 5:15 AM EDT 9:36 PM EDT
Astronomical Twilight 4:36 AM EDT 10:14 PM EDT
Moon 2:06 AM EDT (7/21) 4:14 PM EDT (7/21)
Length of Visible Light 15h 10m
Length of Day
14h 12m
Waning Crescent, 24% of the Moon is Illuminated
Jul 21
Waning Crescent
Jul 26
New
Aug 3
First Quarter
Aug 10
Full
Aug 17
Last Quarter

Hourly Weather History & Observations

Time (EDT) Temp. Dew Point Humidity Pressure Visibility Wind Dir Wind Speed Gust Speed Precip Events Conditions
12:15 AM 72.1 °F 70.9 °F 96% 30.14 in 10.0 mi NE 4.6 mph - N/A   Overcast
12:35 AM 71.8 °F 70.9 °F 97% 30.14 in 10.0 mi Calm Calm - N/A   Overcast
12:55 AM 71.6 °F 70.7 °F 97% 30.13 in 10.0 mi ENE 3.5 mph - N/A   Overcast
1:15 AM 71.6 °F 70.2 °F 95% 30.13 in 10.0 mi Calm Calm - N/A   Overcast
1:35 AM 71.2 °F 70.2 °F 96% 30.13 in 10.0 mi Calm Calm - N/A   Overcast
1:55 AM 71.1 °F 70.3 °F 98% 30.12 in 10.0 mi Calm Calm - N/A   Overcast
2:15 AM 71.1 °F 70.7 °F 99% 30.11 in 10.0 mi Calm Calm - N/A   Mostly Cloudy
2:35 AM 70.7 °F 70.7 °F 100% 30.10 in 7.0 mi Calm Calm - N/A   Mostly Cloudy
2:55 AM 71.1 °F 71.1 °F 100% 30.10 in 7.0 mi Calm Calm - N/A   Overcast
3:15 AM 71.6 °F 71.2 °F 99% 30.09 in 1.0 mi Calm Calm - N/A   Overcast
3:35 AM 71.6 °F 71.2 °F 99% 30.09 in 1.8 mi ENE 3.5 mph - N/A   Overcast
3:55 AM 71.6 °F 71.2 °F 99% 30.09 in 1.2 mi NE 3.5 mph - N/A   Overcast
4:15 AM 71.6 °F 71.6 °F 100% 30.10 in 7.0 mi Calm Calm - N/A   Overcast
4:35 AM 71.8 °F 71.6 °F 99% 30.11 in 7.0 mi Calm Calm - N/A   Overcast
4:55 AM 71.6 °F 71.6 °F 100% 30.11 in 4.0 mi Calm Calm - N/A   Overcast
5:15 AM 71.4 °F 71.4 °F 100% 30.11 in 3.0 mi Calm Calm - N/A   Overcast
5:35 AM 71.2 °F 71.2 °F 100% 30.12 in 2.5 mi Calm Calm - N/A   Overcast
5:55 AM 71.2 °F 71.2 °F 100% 30.12 in 3.0 mi Calm Calm - N/A   Overcast
6:15 AM 71.2 °F 71.2 °F 100% 30.12 in 4.0 mi Calm Calm - N/A Rain Light Rain
6:35 AM 71.1 °F 71.1 °F 100% 30.13 in 3.0 mi Calm Calm - N/A   Overcast
6:55 AM 70.9 °F 70.9 °F 100% 30.14 in 2.0 mi Calm Calm - N/A   Overcast
7:15 AM 71.1 °F 71.1 °F 100% 30.14 in 3.0 mi Calm Calm - N/A   Overcast
7:35 AM 71.2 °F 71.2 °F 100% 30.14 in 3.0 mi North 4.6 mph - N/A   Overcast
7:55 AM 71.2 °F 71.2 °F 100% 30.15 in 3.0 mi North 3.5 mph - N/A   Overcast
8:15 AM 72.1 °F 72.0 °F 99% 30.16 in 4.0 mi Calm Calm - N/A   Overcast
8:35 AM 72.5 °F 72.0 °F 98% 30.16 in 5.0 mi Calm Calm - N/A   Overcast
8:55 AM 73.6 °F 72.7 °F 97% 30.15 in 7.0 mi Calm Calm - N/A   Overcast
9:35 AM 72.7 °F 72.5 °F 99% 30.16 in 3.0 mi ENE 3.5 mph - 0.01 in Rain Rain
9:55 AM 72.5 °F 72.1 °F 99% 30.16 in 3.0 mi Calm Calm - 0.03 in Rain Rain
10:15 AM 72.5 °F 71.8 °F 98% 30.16 in 2.0 mi North 4.6 mph - 0.11 in Rain Rain
10:35 AM 72.5 °F 72.1 °F 99% 30.17 in 7.0 mi Calm Calm - 0.11 in Rain Light Rain
10:55 AM 72.5 °F 72.1 °F 99% 30.17 in 7.0 mi Calm Calm - 0.11 in   Scattered Clouds
11:15 AM 72.7 °F 72.7 °F 100% 30.16 in 5.0 mi Calm Calm - N/A   Clear
11:35 AM 72.5 °F 72.5 °F 100% 30.16 in 7.0 mi Calm Calm - N/A   Scattered Clouds
11:55 AM 72.5 °F 72.1 °F 99% 30.17 in 7.0 mi Calm Calm - N/A   Scattered Clouds
12:15 PM 72.5 °F 72.5 °F 100% 30.18 in 7.0 mi Calm Calm - N/A Rain Light Rain
12:35 PM 72.5 °F 72.5 °F 100% 30.19 in 4.0 mi Calm Calm - N/A Rain Light Rain
12:55 PM 72.5 °F 72.5 °F 100% 30.19 in 5.0 mi Calm Calm - 0.01 in Rain Light Rain
1:15 PM 72.5 °F 72.5 °F 100% 30.19 in 5.0 mi Calm Calm - N/A Rain Light Rain
1:35 PM 72.7 °F 72.7 °F 100% 30.18 in 4.0 mi Calm Calm - 0.02 in Rain Rain
1:55 PM 72.7 °F 72.5 °F 99% 30.17 in 5.0 mi Calm Calm - 0.03 in Rain Rain
2:15 PM 72.9 °F 72.3 °F 98% 30.17 in 7.0 mi Calm Calm - N/A Rain Light Rain
2:35 PM 72.9 °F 72.5 °F 99% 30.17 in 5.0 mi Calm Calm - 0.02 in Rain Heavy Rain
2:55 PM 73.0 °F 72.5 °F 98% 30.17 in 5.0 mi Calm Calm - 0.04 in Rain Rain
3:15 PM 73.2 °F 72.7 °F 98% 30.16 in 3.0 mi Calm Calm - 0.03 in Rain Rain
3:35 PM 73.4 °F 73.0 °F 99% 30.15 in 5.0 mi Calm Calm - 0.05 in Rain Light Rain
3:55 PM 73.8 °F 73.4 °F 99% 30.14 in 7.0 mi Calm Calm - 0.05 in Rain Light Rain
4:15 PM 73.8 °F 73.0 °F 98% 30.14 in 10.0 mi Calm Calm - N/A Rain Light Rain
4:35 PM 74.3 °F 73.2 °F 96% 30.14 in 10.0 mi NNE 3.5 mph - N/A Rain Light Rain
4:55 PM 74.3 °F 73.4 °F 97% 30.15 in 10.0 mi North 3.5 mph - N/A Rain Light Rain
5:15 PM 74.5 °F 73.4 °F 96% 30.16 in 10.0 mi NE 4.6 mph - N/A   Overcast
5:35 PM 74.7 °F 73.0 °F 95% 30.16 in 10.0 mi ENE 3.5 mph - N/A   Mostly Cloudy
5:55 PM 75.0 °F 73.4 °F 95% 30.16 in 7.0 mi Calm Calm - N/A Rain Light Rain
6:15 PM 74.3 °F 73.4 °F 97% 30.15 in 7.0 mi NE 3.5 mph - N/A Rain Rain
6:35 PM 73.9 °F 72.7 °F 96% 30.16 in 3.0 mi ESE 5.8 mph - 0.05 in Rain Heavy Rain
6:55 PM 72.3 °F 70.9 °F 95% 30.16 in 10.0 mi Calm Calm - 0.06 in   Scattered Clouds
7:15 PM 72.5 °F 71.2 °F 96% 30.17 in 10.0 mi Calm Calm - N/A   Scattered Clouds
7:35 PM 72.7 °F 71.8 °F 97% 30.16 in 10.0 mi Calm Calm - N/A   Mostly Cloudy
7:55 PM 72.7 °F 71.8 °F 97% 30.16 in 10.0 mi Calm Calm - N/A   Scattered Clouds
8:15 PM 72.5 °F 71.6 °F 97% 30.15 in 10.0 mi Calm Calm - N/A   Scattered Clouds
8:35 PM 72.1 °F 71.6 °F 98% 30.16 in 10.0 mi Calm Calm - N/A   Scattered Clouds
8:55 PM 72.0 °F 71.4 °F 98% 30.17 in 10.0 mi Calm Calm - N/A   Scattered Clouds
9:15 PM 71.6 °F 71.2 °F 99% 30.18 in 10.0 mi Calm Calm - N/A   Mostly Cloudy
9:35 PM 71.6 °F 71.4 °F 99% 30.18 in 7.0 mi Calm Calm - N/A   Overcast
9:55 PM 71.8 °F 71.6 °F 99% 30.19 in 10.0 mi Calm Calm - N/A   Overcast
10:15 PM 71.6 °F 70.9 °F 98% 30.19 in 10.0 mi Calm Calm - N/A   Mostly Cloudy
10:35 PM 71.2 °F 70.7 °F 98% 30.19 in 10.0 mi Calm Calm - N/A   Scattered Clouds
10:55 PM 70.9 °F 70.9 °F 100% 30.19 in 7.0 mi Calm Calm - N/A   Scattered Clouds
11:15 PM 70.3 °F 70.3 °F 100% 30.18 in 7.0 mi Calm Calm - N/A   Clear
11:35 PM 70.2 °F 70.2 °F 100% 30.18 in 7.0 mi Calm Calm - N/A   Clear
11:55 PM 70.3 °F 70.3 °F 100% 30.18 in 10.0 mi Calm Calm - N/A   Clear